Back to catalog

STARLINK-33901

AliveCommunicationsVLEO
NORAD 63878·PAYLOAD·🇺🇸 United States

Launched May 10, 2025 from Vandenberg Space Force Base

Loading…

Next Passes (next 24 hours)

TLE

FreshSource: CelesTrak SupGP

Epoch: Sep 14, 2026, 14:37 UTC

1 63878C 25094Q   26257.60951389  .00015670  00000+0  54500-3 0  2577
2 63878  69.9993 116.5901 0003117 265.2993 322.8640 15.29578697    15

Track STARLINK-33901 in real time with AllMySat

Download on the App Store